STARLINK-1547, 46347

Orbit data source: Space-Track

STARLINK-1547, 46347 is a payload satellite owned by SpaceX/Seattle (US) in LEO that was launched on Thu, 03 Sep 2020 UTC via an FALCON 9 launch vehicle from the Air Force Eastern Test Range (AFETR). Payload-class satellites include a variety of spacecraft equipped with specific instruments for various scientific and technological missions. These include communications satellites like Starlink; space stations such as the ISS; scientific satellites like the Hubble; Earth observation satellites from companies like Planet Labs, Umbra, and HawkEye 360; GPS; miniature CubeSats for education and research; and military/defense satellites.

Loading next visibility...
Identifier
46347, 2020-062Y
Orbit
LEO
Country
Flag of USUS
Related business
Manufacturer
SpaceX/Seattle
Mission
Partially operational Commercial Communications
Bus & Motor
STARLINK, Unknown motor
Mass
260 kg wet, ~248 kg dry
Launch date (UTC)
2020-09-03 (6 years ago)
Launch vehicle
FALCON 9
Launch site
Air Force Eastern Test Range (AFETR)
Object type
Payload
Rocket body
Debris
Shape & HBR
Box + 1 Pan, 10.1 m
Radar Cross Section
13.562 m², Large (>1 m²)

Expand to show TLE details & history
Last TLE update: 6 hours ago

TLE from 6 hours ago
0 STARLINK-1547
1 46347U 20062Y   26166.66667824  .00248007  34371-4  71098-3 0  9991
2 46347  53.0255 150.0885 0006353  48.6956 105.7344 15.92717251  6020
Epoch: 2026-06-15T16:00Z
TLE epoch observation values (Epoch: 2026-06-15T16:00:00.999Z)
Latitude
20.16151°
Longitude
170.18096°
Altitude
296.316 km
Speed
7.732 km/s
True Right ascension
20h 56m 32s
True Declination
20° 02' 34"
Sunlit
Object was in full shadow at epoch
Visualization orbit readout
Latitude
Unknown
Longitude
Unknown
Altitude
Unknown
Speed
Unknown
Apparent Right ascension
Unknown
Apparent Declination
Unknown
Sunlit
N/A
Visualization observer readout
Local Sidereal Time
08:26:46
Azimuth
Unknown
Elevation
Unknown
Doppler factor
Unknown
Orbital elements
Apogee altitude
299.208 km
Perigee altitude
290.729 km
Semi-major axis
6,673.105 km
Eccentricity
0.00064
Inclination
53.0255°
RAAN
150.0885°
Arg. of periapsis
48.6956°
True anomaly
105.80446°
Mean anomaly
105.7344°
Eccentric anomaly
105.76943°
Mean motion
3.98154 °/min
Orbital period
90.42 mins
BSTAR
0.00071098
Loading maneuver chart data...
Computing Atmospheric mass density...

Documentation

Showing up to 5 results
|